EDT,Max TemperatureF,Mean TemperatureF,Min TemperatureF,Max Dew PointF,MeanDew PointF,Min DewpointF,Max Humidity, Mean Humidity, Min Humidity, Max Sea Level PressureIn, Mean Sea Level PressureIn, Min Sea Level PressureIn, Max VisibilityMiles, Mean VisibilityMiles, Min VisibilityMiles, Max Wind SpeedMPH, Mean Wind SpeedMPH, Max Gust SpeedMPH,PrecipitationIn, CloudCover, Events, WindDirDegrees
2011-10-1,60,55,50,59,53,50,100,91,72,29.84,29.74,29.68,10,9,3,16,5,23,0.01,5,Rain,312
2011-10-2,50,48,46,50,48,45,100,97,82,29.96,29.82,29.77,10,9,4,10,7,16,0.01,8,Rain,273
2011-10-3,57,50,42,50,45,43,100,93,72,30.13,30.02,29.98,10,10,5,10,3,,0.00,5,Rain,288
2011-10-4,68,56,44,57,50,45,100,92,64,30.17,30.13,30.10,10,10,7,14,2,21,0.00,4,,315
2011-10-5,73,63,53,57,54,50,100,85,44,30.29,30.20,30.15,10,10,10,14,5,21,0.00,0,,324
2011-10-6,68,57,46,50,46,43,100,75,43,30.43,30.37,30.29,10,10,10,13,7,,0.00,0,,24
2011-10-7,73,58,44,55,48,45,100,88,41,30.52,30.44,30.39,10,10,10,5,0,,0.00,0,,20
2011-10-8,75,60,46,59,50,41,100,88,31,30.57,30.52,30.49,10,10,7,5,0,,0.00,0,,300
2011-10-9,80,64,48,59,53,48,100,90,45,30.49,30.45,30.36,10,10,10,6,0,,0.00,1,Fog,310
2011-10-10,84,68,51,70,58,52,100,89,42,30.36,30.28,30.19,10,9,5,6,0,,0.00,1,Fog,38
2011-10-11,73,66,60,66,62,61,100,94,73,30.18,30.15,30.10,10,9,5,9,2,,0.00,4,Rain,83
2011-10-12,68,65,62,66,64,63,100,99,94,30.11,30.04,29.89,10,9,7,16,10,23,0.02,8,Rain,71
2011-10-13,77,70,64,72,68,64,100,97,83,29.81,29.72,29.63,10,5,0,13,7,18,0.00,6,Fog,134
2011-10-14,73,66,59,70,63,46,100,91,63,29.73,29.59,29.49,10,9,2,17,9,26,0.01,4,Rain,208
2011-10-15,71,62,53,50,47,43,88,63,41,29.98,29.80,29.73,10,10,10,20,7,28,0.00,0,,252
2011-10-16,69,62,55,54,44,37,68,54,40,30.07,29.96,29.79,10,10,10,20,9,28,0.00,1,,248
2011-10-17,68,60,53,55,52,45,100,70,46,29.90,29.81,29.73,10,10,10,20,10,26,0.00,1,,263
2011-10-18,75,62,50,61,54,48,100,89,41,29.90,29.86,29.80,10,10,10,9,1,,0.00,2,,110
2011-10-19,71,66,60,72,64,57,100,98,82,29.80,29.60,29.33,10,7,2,16,7,23,0.01,4,Rain,94
2011-10-20,69,62,55,70,54,45,100,78,52,29.83,29.52,29.33,10,10,10,25,14,36,0.00,4,,219
2011-10-21,62,56,50,46,44,41,87,72,48,30.14,29.98,29.84,10,10,10,13,9,23,0.00,2,,276
2011-10-22,60,51,42,48,44,43,100,83,52,30.18,30.15,30.12,10,10,10,10,4,,0.00,2,,327
2011-10-23,64,50,37,48,43,37,100,90,52,30.21,30.16,30.13,10,9,5,5,1,,0.00,1,,194
2011-10-24,68,56,44,55,49,45,100,92,59,30.18,30.12,30.02,10,8,3,9,1,,0.00,1,Rain,229
2011-10-25,66,57,48,54,49,41,100,86,40,30.22,30.13,30.08,10,10,10,15,4,16,0.00,0,,290
2011-10-26,68,60,51,57,51,46,100,83,56,30.11,29.98,29.81,10,10,10,9,4,17,0.00,3,Rain,200
2011-10-27,68,56,44,61,54,39,100,84,45,30.02,29.78,29.63,10,10,5,21,3,32,0.00,3,Rain,267
2011-10-28,50,44,37,39,35,30,93,76,50,30.27,30.18,30.04,10,10,10,14,8,21,0.00,3,,27
2011-10-29,42,38,35,43,39,36,100,99,87,30.21,30.04,29.79,10,7,2,28,12,37,0.10,7,Rain,26
2011-10-30,51,42,32,37,35,32,100,89,47,30.41,30.22,30.06,10,10,5,12,7,18,0.00,2,,327
2011-10-31,57,44,32,46,36,32,100,89,44,30.42,30.37,30.28,10,10,10,12,1,,0.00,2,,115